QPF
0.14 0.19 0.18 0.14 0.06 0.03 0.01 0.01 0.00 0.00 0.00 0.00 0.00 0.00 0.00 0.00 0.00 0.00 0.00 0.00 0.00 0.00 0.00 0.00 0.00 0.00 0.00 0.00 0.00 0.00 0.00 0.01 0.01 0.00 0.00 0.00 0.00 0.00
0.14 0.20 0.23 0.18 0.12 0.09 0.05 0.05 0.03 0.02 0.01 0.00 0.00 0.00 0.01 0.00 0.00 0.00 0.00 0.02 0.02 0.01 0.00 0.00 0.00 0.00 0.00 0.00 0.00 0.00 0.00 0.01 0.01 0.00 0.00 0.00 0.00 0.00
0.10 0.16 0.23 0.21 0.18 0.11 0.08 0.07 0.06 0.05 0.01 0.00 0.00 0.00 0.00 0.00 0.00 0.00 0.00 0.00 0.02 0.03 0.03 0.02 0.02 0.01 0.00 0.00 0.00 0.00 0.00 0.00 0.00 0.00 0.00 0.00 0.00 0.00
0.06 0.11 0.14 0.17 0.17 0.14 0.10 0.07 0.03 0.03 0.04 0.01 0.00 0.00 0.01 0.00 0.00 0.00 0.00 0.00 0.00 0.00 0.00 0.00 0.01 0.02 0.01 0.01 0.00 0.00 0.00 0.00 0.00 0.00 0.00 0.00 0.00 0.00
0.01 0.03 0.04 0.07 0.10 0.11 0.09 0.06 0.03 0.03 0.04 0.03 0.01 0.01 0.00 0.00 0.01 0.00 0.00 0.00 0.00 0.00 0.00 0.00 0.01 0.01 0.01 0.01 0.01 0.00 0.00 0.00 0.00 0.00 0.00 0.00 0.00 0.00
0.00 0.00 0.01 0.02 0.02 0.03 0.04 0.04 0.04 0.04 0.03 0.03 0.04 0.02 0.02 0.02 0.02 0.01 0.01 0.00 0.00 0.00 0.00 0.00 0.01 0.01 0.01 0.02 0.02 0.01 0.00 0.00 0.00 0.00 0.00 0.00 0.00 0.00
0.00 0.00 0.00 0.00 0.01 0.01 0.01 0.02 0.02 0.02 0.02 0.02 0.02 0.02 0.02 0.01 0.01 0.01 0.00 0.00 0.00 0.00 0.00 0.00 0.00 0.01 0.01 0.01 0.01 0.01 0.01 0.01 0.00 0.00 0.00 0.00 0.00 0.00
0.00 0.00 0.00 0.00 0.00 0.00 0.00 0.00 0.00 0.00 0.00 0.00 0.00 0.00 0.00 0.00 0.00 0.00 0.00 0.00 0.00 0.00 0.00 0.00 0.00 0.00 0.00 0.00 0.01 0.01 0.01 0.00 0.00 0.00 0.00 0.00 0.00 0.00
0.00 0.00 0.00 0.00 0.00 0.00 0.00 0.00 0.00 0.00 0.00 0.00 0.00 0.00 0.00 0.00 0.00 0.00 0.00 0.00 0.00 0.00 0.00 0.00 0.00 0.00 0.00 0.00 0.00 0.00 0.00 0.00 0.00 0.00 0.00 0.00 0.00 0.00
0.00 0.00 0.00 0.00 0.00 0.00 0.00 0.00 0.00 0.00 0.00 0.00 0.00 0.00 0.00 0.00 0.00 0.00 0.00 0.00 0.00 0.00 0.00 0.00 0.00 0.00 0.00 0.00 0.00 0.00 0.00 0.00 0.00 0.00 0.00 0.00 0.00 0.00
0.00 0.00 0.00 0.00 0.00 0.00 0.00 0.00 0.00 0.00 0.00 0.00 0.00 0.00 0.00 0.00 0.00 0.00 0.00 0.00 0.00 0.00 0.00 0.00 0.00 0.00 0.00 0.00 0.00 0.00 0.00 0.00 0.00 0.00 0.00 0.00 0.00 0.00
0.00 0.00 0.00 0.00 0.00 0.00 0.00 0.00 0.00 0.00 0.00 0.00 0.00 0.00 0.00 0.00 0.00 0.00 0.00 0.00 0.00 0.00 0.00 0.00 0.00 0.00 0.00 0.00 0.00 0.00 0.00 0.00 0.00 0.00 0.00 0.00 0.00 0.00
0.00 0.00 0.00 0.00 0.00 0.00 0.00 0.00 0.00 0.00 0.00 0.00 0.00 0.00 0.00 0.00 0.00 0.00 0.00 0.00 0.00 0.00 0.00 0.00 0.00 0.00 0.00 0.00 0.00 0.00 0.00 0.00 0.00 0.00 0.00 0.00 0.00 0.00
0.00 0.00 0.00 0.00 0.00 0.00 0.00 0.00 0.00 0.00 0.00 0.00 0.00 0.00 0.00 0.00 0.00 0.00 0.00 0.00 0.00 0.00 0.00 0.00 0.00 0.00 0.00 0.00 0.00 0.00 0.00 0.00 0.00 0.00 0.00 0.00 0.00 0.00
0.00 0.00 0.00 0.00 0.00 0.00 0.00 0.00 0.00 0.00 0.00 0.00 0.00 0.00 0.00 0.00 0.00 0.00 0.00 0.00 0.00 0.00 0.00 0.00 0.00 0.00 0.00 0.00 0.00 0.00 0.00 0.00 0.00 0.00 0.00 0.00 0.00 0.00
0.00 0.00 0.00 0.00 0.00 0.00 0.00 0.00 0.00 0.00 0.00 0.00 0.00 0.00 0.00 0.00 0.00 0.00 0.00 0.00 0.00 0.00 0.00 0.00 0.00 0.00 0.00 0.00 0.00 0.00 0.00 0.00 0.00 0.00 0.00 0.00 0.00 0.00
0.00 0.00 0.00 0.00 0.00 0.00 0.00 0.00 0.00 0.00 0.00 0.00 0.00 0.00 0.00 0.00 0.00 0.00 0.00 0.00 0.00 0.00 0.00 0.00 0.00 0.00 0.00 0.00 0.00 0.00 0.00 0.00 0.00 0.00 0.00 0.00 0.00 0.00
0.00 0.00 0.00 0.00 0.00 0.00 0.00 0.00 0.00 0.00 0.00 0.00 0.00 0.00 0.00 0.00 0.00 0.00 0.00 0.00 0.00 0.00 0.00 0.00 0.00 0.00 0.00 0.00 0.00 0.00 0.00 0.00 0.00 0.00 0.00 0.00 0.00 0.00
0.00 0.00 0.00 0.00 0.00 0.00 0.00 0.00 0.00 0.00 0.00 0.00 0.00 0.00 0.00 0.00 0.00 0.00 0.00 0.00 0.00 0.00 0.00 0.00 0.00 0.00 0.00 0.00 0.00 0.00 0.00 0.00 0.00 0.00 0.00 0.00 0.00 0.00
0.00 0.00 0.00 0.00 0.00 0.00 0.00 0.00 0.00 0.00 0.00 0.00 0.00 0.00 0.00 0.00 0.00 0.00 0.00 0.00 0.00 0.00 0.00 0.00 0.00 0.00 0.00 0.00 0.00 0.00 0.00 0.00 0.00 0.00 0.00 0.00 0.00 0.00
0.00 0.00 0.00 0.00 0.00 0.00 0.00 0.00 0.00 0.00 0.00 0.00 0.00 0.00 0.00 0.00 0.00 0.00 0.00 0.00 0.00 0.00 0.00 0.00 0.00 0.00 0.00 0.00 0.00 0.00 0.00 0.00 0.00 0.00 0.00 0.00 0.00 0.00
0.00 0.00 0.00 0.00 0.00 0.00 0.00 0.00 0.00 0.00 0.00 0.00 0.00 0.00 0.00 0.00 0.00 0.00 0.00 0.00 0.00 0.00 0.00 0.00 0.00 0.00 0.00 0.00 0.00 0.00 0.00 0.00 0.00 0.00 0.00 0.00 0.00 0.00
0.00 0.00 0.00 0.00 0.00 0.00 0.00 0.00 0.00 0.00 0.00 0.00 0.00 0.00 0.00 0.00 0.00 0.00 0.00 0.00 0.00 0.00 0.00 0.00 0.00 0.00 0.00 0.00 0.00 0.00 0.00 0.00 0.00 0.00 0.00 0.00 0.00 0.00
MSLP
1003.53 1003.05 1003.28 1003.36 1003.79 1004.18 1004.80 1005.56 1006.93 1008.09 1008.51 1008.38 1008.75 1008.65 1008.83 1008.92 1009.20 1009.74 1010.16 1010.48 1011.05 1011.41 1011.67 1012.09 1012.46 1012.85 1013.22 1013.77 1014.12 1014.42 1014.71 1015.14 1015.59 1015.92 1016.21 1016.57 1016.90 1017.30
1003.14 1003.73 1003.25 1002.93 1003.28 1003.73 1004.28 1004.96 1005.62 1006.42 1007.30 1007.36 1007.63 1007.90 1008.25 1008.47 1008.57 1008.94 1009.18 1009.56 1010.00 1010.46 1010.93 1011.36 1011.69 1011.93 1012.27 1012.65 1013.11 1013.54 1013.95 1014.26 1014.59 1014.94 1015.21 1015.47 1015.85 1016.30
1003.17 1003.50 1003.25 1002.85 1003.07 1003.38 1003.93 1004.77 1005.45 1005.99 1006.48 1006.57 1007.05 1007.36 1007.98 1008.21 1008.55 1008.49 1008.68 1008.97 1009.08 1009.52 1009.76 1010.30 1010.76 1011.07 1011.38 1011.69 1012.00 1012.30 1012.74 1013.07 1013.35 1013.73 1014.15 1014.49 1014.79 1015.09
1003.27 1003.68 1004.58 1004.27 1003.97 1004.02 1003.99 1004.48 1004.96 1005.54 1005.91 1006.37 1006.87 1007.22 1007.41 1007.65 1007.82 1008.03 1008.12 1008.33 1008.37 1008.52 1008.79 1009.06 1009.58 1009.83 1010.09 1010.68 1011.08 1011.45 1011.69 1012.08 1012.48 1012.80 1013.01 1013.30 1013.54 1013.68
1005.12 1004.50 1006.56 1006.15 1006.50 1006.10 1005.62 1004.91 1005.02 1005.63 1005.82 1006.25 1006.58 1006.93 1007.07 1007.25 1007.39 1007.67 1007.77 1007.50 1007.60 1007.90 1008.32 1008.41 1008.57 1009.00 1009.27 1009.86 1010.07 1010.21 1010.65 1011.05 1011.54 1011.73 1012.05 1012.36 1012.58 1012.79
1006.08 1006.31 1007.13 1007.74 1007.50 1008.59 1007.24 1006.96 1007.17 1006.19 1006.51 1006.64 1006.77 1007.03 1007.33 1007.25 1007.16 1007.74 1007.75 1007.15 1007.13 1007.45 1007.59 1007.45 1007.81 1008.09 1008.64 1009.01 1009.08 1009.54 1009.77 1009.99 1010.38 1010.88 1011.23 1011.52 1011.75 1011.79
1007.10 1007.65 1008.23 1009.65 1010.03 1010.08 1008.54 1008.60 1008.60 1008.45 1007.19 1007.36 1008.41 1008.34 1009.32 1008.82 1009.33 1009.82 1008.66 1008.51 1007.69 1007.85 1007.26 1007.38 1007.66 1007.95 1007.95 1008.30 1008.29 1008.53 1008.73 1008.99 1009.41 1009.78 1010.16 1010.47 1010.73 1010.97
1009.59 1010.52 1010.55 1010.06 1010.93 1010.80 1010.67 1010.89 1010.43 1010.09 1008.87 1009.12 1009.83 1010.23 1011.35 1011.44 1011.49 1011.15 1009.43 1009.61 1008.94 1008.94 1008.77 1008.27 1007.88 1007.68 1007.67 1007.50 1007.28 1007.43 1007.83 1008.19 1008.47 1008.94 1009.29 1009.36 1009.61 1009.93
1011.98 1011.00 1010.68 1011.15 1011.76 1011.96 1011.83 1011.35 1011.50 1011.92 1011.69 1012.61 1011.31 1011.50 1011.86 1012.83 1013.47 1011.33 1011.06 1010.86 1010.83 1009.86 1010.01 1008.98 1008.45 1008.60 1008.22 1008.33 1008.47 1008.30 1008.17 1008.25 1008.55 1008.91 1008.93 1009.06 1009.10 1009.07
1014.22 1012.97 1012.97 1012.70 1013.70 1013.58 1013.64 1013.79 1012.89 1013.99 1014.18 1013.89 1013.96 1013.14 1013.79 1014.57 1013.74 1012.96 1012.30 1011.33 1010.82 1011.50 1010.94 1010.37 1009.81 1009.33 1009.11 1009.09 1009.27 1008.84 1008.69 1008.57 1008.50 1008.72 1008.76 1008.60 1008.56 1008.58
1015.36 1015.00 1015.07 1015.07 1015.53 1014.97 1015.05 1015.11 1014.87 1015.02 1015.31 1015.20 1015.17 1014.18 1014.24 1014.56 1013.90 1013.48 1012.94 1011.76 1011.66 1011.77 1012.21 1011.89 1010.91 1010.25 1009.42 1009.49 1009.48 1009.25 1009.09 1009.05 1009.07 1008.87 1008.83 1008.44 1008.04 1007.70
1017.53 1017.67 1017.36 1016.93 1016.54 1016.54 1016.55 1016.59 1016.08 1016.63 1016.14 1015.72 1015.00 1015.23 1015.15 1014.94 1014.37 1014.33 1014.48 1013.75 1013.35 1012.88 1013.35 1013.16 1011.91 1011.18 1010.04 1009.63 1009.85 1009.67 1009.54 1009.24 1009.18 1009.01 1008.88 1008.56 1008.29 1007.49
1019.94 1019.36 1018.84 1018.23 1017.53 1017.89 1018.01 1017.75 1017.46 1017.30 1016.80 1016.71 1016.61 1016.42 1016.06 1015.32 1014.91 1015.11 1015.24 1014.93 1014.33 1013.99 1013.98 1013.99 1012.75 1011.98 1011.61 1010.73 1009.95 1009.90 1010.11 1009.42 1009.27 1008.74 1008.73 1008.29 1008.27 1007.50
1021.14 1021.59 1020.78 1019.97 1019.45 1019.55 1019.30 1019.11 1018.72 1018.45 1018.05 1018.01 1017.65 1017.20 1016.97 1016.68 1016.51 1015.98 1015.29 1015.01 1014.49 1014.37 1014.30 1014.22 1013.80 1013.32 1012.78 1011.75 1011.06 1010.17 1009.91 1009.70 1009.60 1008.82 1008.56 1008.36 1008.23 1007.76
1022.78 1022.35 1021.52 1021.21 1020.98 1021.11 1020.81 1020.06 1019.57 1019.29 1019.06 1018.72 1018.89 1018.47 1018.23 1018.14 1017.25 1016.11 1015.29 1014.89 1014.39 1014.44 1014.50 1014.35 1013.78 1013.49 1012.89 1012.23 1011.68 1010.71 1010.40 1009.61 1009.73 1009.24 1008.61 1008.42 1008.04 1007.65
1023.93 1023.50 1023.04 1022.44 1021.61 1021.71 1021.20 1021.21 1021.19 1020.97 1020.98 1020.79 1020.47 1019.85 1019.08 1018.34 1017.73 1016.99 1016.19 1015.30 1014.68 1014.37 1013.92 1013.73 1013.27 1013.07 1012.83 1012.23 1011.91 1011.09 1010.88 1010.42 1009.96 1009.46 1009.09 1008.93 1008.46 1008.38
1025.40 1024.79 1023.85 1023.02 1023.16 1023.51 1023.23 1022.79 1022.52 1022.10 1021.99 1021.97 1021.44 1020.81 1020.01 1019.24 1018.21 1017.56 1016.95 1016.25 1015.50 1014.93 1014.46 1013.78 1013.09 1012.91 1012.61 1012.31 1011.82 1011.59 1010.93 1010.59 1010.48 1009.80 1009.47 1009.21 1009.02 1008.87
1024.35 1024.23 1024.31 1024.90 1024.78 1024.83 1024.70 1024.59 1024.22 1023.96 1023.77 1023.16 1022.47 1021.88 1020.98 1019.89 1018.87 1017.73 1017.08 1016.77 1016.05 1015.39 1014.76 1014.09 1013.44 1012.70 1012.34 1012.01 1011.84 1011.66 1011.19 1010.85 1010.45 1010.03 1009.73 1009.43 1008.94 1009.07
1025.80 1026.22 1026.20 1026.25 1026.20 1025.77 1025.57 1025.39 1025.15 1025.17 1024.91 1024.68 1024.17 1023.18 1021.94 1020.96 1019.77 1018.66 1017.97 1017.44 1016.73 1015.92 1015.04 1014.31 1013.57 1013.00 1012.51 1012.44 1011.97 1011.94 1011.53 1010.74 1010.18 1010.02 1009.76 1009.69 1009.80 1009.22
1025.70 1026.04 1026.67 1026.83 1026.59 1026.46 1026.25 1026.20 1026.20 1026.22 1025.96 1025.27 1024.51 1023.85 1022.92 1021.67 1020.56 1019.59 1018.82 1018.20 1017.25 1016.27 1015.49 1014.70 1013.85 1013.59 1013.34 1012.84 1012.14 1011.97 1011.76 1011.28 1010.52 1010.41 1010.02 1009.42 1009.62 1010.11
1026.43 1026.53 1026.64 1026.44 1026.49 1026.43 1026.44 1026.36 1026.50 1026.05 1025.63 1025.22 1024.32 1023.58 1022.98 1021.84 1020.79 1019.70 1019.11 1018.80 1018.04 1016.82 1015.72 1014.76 1014.24 1013.81 1013.20 1012.73 1012.58 1012.14 1011.78 1011.55 1011.23 1010.82 1010.27 1010.32 1010.10 1010.12
1027.44 1027.25 1027.05 1026.70 1026.42 1026.30 1026.02 1026.10 1026.04 1025.85 1025.51 1025.14 1024.59 1023.88 1023.18 1022.29 1021.19 1020.45 1020.06 1019.23 1018.15 1017.32 1016.25 1015.18 1014.32 1013.67 1012.72 1012.14 1012.47 1012.33 1012.13 1012.23 1011.36 1011.45 1010.86 1010.53 1010.56 1010.51
1027.15 1027.04 1026.86 1026.76 1026.49 1026.50 1026.75 1026.80 1026.64 1026.50 1026.33 1025.91 1024.94 1024.16 1023.58 1022.75 1021.88 1020.98 1020.12 1019.35 1018.59 1017.54 1016.41 1015.41 1014.59 1013.53 1012.86 1012.70 1012.49 1012.30 1012.55 1012.37 1012.07 1011.79 1011.60 1010.96 1010.25 1010.71
Thickness
5607 5620 5626 5632 5635 5639 5638 5636 5628 5619 5624 5634 5632 5635 5636 5638 5637 5635 5635 5635 5633 5631 5630 5626 5622 5618 5615 5612 5609 5607 5605 5602 5597 5594 5592 5589 5586 5582
5600 5603 5616 5625 5627 5629 5632 5631 5628 5628 5625 5633 5632 5631 5630 5632 5635 5632 5633 5633 5632 5628 5626 5622 5619 5617 5614 5612 5609 5606 5604 5602 5599 5595 5593 5591 5588 5583
5584 5591 5607 5613 5620 5623 5623 5622 5620 5620 5623 5630 5628 5627 5623 5623 5625 5626 5627 5626 5628 5626 5625 5621 5615 5615 5613 5612 5610 5608 5604 5602 5600 5597 5593 5590 5587 5585
5580 5585 5581 5590 5599 5607 5615 5614 5613 5615 5618 5622 5620 5618 5618 5618 5619 5619 5622 5620 5622 5622 5622 5620 5616 5615 5615 5612 5609 5606 5604 5601 5598 5596 5594 5592 5589 5587
5552 5568 5554 5561 5566 5579 5587 5596 5597 5602 5610 5611 5614 5610 5609 5610 5612 5610 5612 5616 5616 5615 5614 5616 5614 5613 5612 5609 5609 5608 5604 5601 5597 5596 5593 5590 5589 5587
5539 5545 5540 5541 5542 5547 5561 5565 5567 5583 5587 5593 5600 5599 5597 5598 5599 5597 5601 5608 5610 5609 5607 5612 5611 5610 5607 5606 5606 5603 5603 5601 5597 5593 5592 5589 5588 5588
5521 5522 5524 5515 5519 5521 5531 5537 5541 5551 5567 5571 5564 5569 5560 5559 5560 5562 5577 5580 5593 5593 5602 5601 5600 5598 5600 5598 5600 5600 5600 5599 5596 5593 5589 5587 5586 5584
5491 5491 5497 5504 5501 5502 5507 5509 5519 5524 5534 5539 5533 5533 5526 5526 5531 5536 5551 5557 5573 5565 5572 5579 5584 5588 5588 5590 5595 5595 5593 5591 5590 5589 5586 5585 5583 5580
5463 5476 5484 5484 5480 5481 5487 5493 5493 5492 5498 5493 5510 5510 5511 5503 5504 5519 5525 5533 5539 5547 5548 5562 5565 5567 5570 5569 5571 5574 5576 5577 5575 5573 5575 5574 5573 5574
5436 5451 5454 5460 5452 5454 5457 5459 5468 5462 5465 5471 5471 5482 5479 5478 5486 5493 5500 5511 5520 5516 5524 5537 5539 5545 5547 5550 5550 5555 5556 5557 5558 5556 5558 5561 5561 5562
5419 5428 5430 5430 5427 5433 5435 5436 5439 5441 5441 5444 5445 5456 5460 5458 5465 5469 5477 5492 5498 5498 5493 5502 5513 5521 5529 5530 5532 5534 5535 5536 5536 5538 5538 5543 5547 5551
5395 5397 5402 5409 5411 5411 5411 5412 5418 5415 5420 5424 5431 5432 5435 5438 5445 5446 5447 5457 5462 5473 5467 5474 5487 5495 5511 5512 5510 5512 5513 5517 5517 5519 5522 5524 5526 5533
5374 5379 5385 5392 5397 5395 5394 5395 5396 5398 5402 5404 5407 5410 5414 5420 5426 5427 5426 5430 5438 5444 5445 5448 5460 5469 5475 5485 5490 5488 5488 5497 5498 5504 5503 5507 5505 5513
5359 5356 5363 5369 5373 5374 5375 5376 5378 5380 5384 5385 5389 5392 5394 5397 5400 5406 5412 5414 5418 5421 5424 5427 5430 5435 5441 5454 5462 5466 5468 5471 5472 5480 5483 5485 5486 5489
5339 5342 5346 5347 5348 5346 5349 5354 5357 5360 5362 5365 5362 5366 5368 5368 5376 5386 5394 5397 5402 5401 5402 5404 5410 5412 5419 5427 5434 5442 5444 5450 5449 5454 5459 5462 5466 5470
5316 5318 5322 5325 5330 5329 5330 5328 5328 5328 5328 5330 5332 5336 5342 5348 5351 5356 5363 5372 5377 5380 5385 5387 5392 5394 5397 5404 5407 5416 5418 5424 5426 5431 5434 5435 5440 5440
5290 5293 5297 5299 5297 5294 5295 5299 5302 5304 5303 5303 5306 5309 5314 5318 5324 5328 5333 5338 5345 5351 5355 5360 5368 5370 5374 5378 5383 5385 5392 5395 5397 5405 5408 5412 5414 5415
5287 5285 5282 5274 5274 5271 5267 5265 5265 5264 5265 5269 5274 5278 5283 5289 5295 5303 5308 5309 5315 5321 5326 5331 5337 5344 5351 5354 5356 5358 5364 5368 5372 5378 5382 5386 5391 5391
5254 5246 5241 5241 5243 5244 5241 5239 5237 5233 5233 5232 5233 5239 5246 5250 5259 5266 5271 5274 5279 5288 5295 5302 5307 5313 5318 5320 5324 5326 5332 5340 5345 5348 5351 5354 5357 5366
5236 5230 5220 5213 5209 5206 5204 5202 5199 5196 5196 5198 5201 5201 5206 5213 5218 5226 5232 5236 5243 5252 5258 5264 5272 5275 5278 5285 5292 5295 5297 5303 5312 5317 5322 5330 5331 5330
5203 5194 5187 5185 5181 5178 5172 5167 5162 5163 5162 5160 5164 5166 5167 5173 5178 5185 5190 5189 5196 5209 5218 5225 5230 5235 5241 5246 5251 5258 5264 5269 5276 5284 5291 5294 5299 5304
5157 5153 5149 5146 5143 5138 5133 5126 5123 5119 5118 5117 5117 5120 5123 5128 5136 5138 5140 5147 5155 5164 5172 5178 5185 5194 5205 5213 5215 5218 5225 5230 5241 5248 5256 5262 5267 5273
5139 5129 5120 5111 5106 5099 5092 5086 5083 5078 5078 5079 5081 5084 5086 5090 5098 5105 5111 5117 5123 5130 5139 5146 5153 5162 5168 5173 5178 5184 5189 5196 5205 5214 5222 5230 5240 5244